Location: *
(32.8140°S, 174.6161°E)
Time: 02:15:44
(UTC+00:00)

Cosmos 1328 Rocket - Pass Details

Date: 10 December 2019
Orbit: 602 x 626 km, 82.5° (Epoch: 25 January)

Event Time Altitude Azimuth Distance (km) Brightness Sun altitude
Exits shadow 15:41:16 21° 345° (NNW) 1,385 4.9 -15.6°
Maximum altitude 15:44:08 73° 263° (W) 658 3.5 -15.1°
Drops below altitude 10° 15:48:37 10° 178° (S) 2,021 6.8 -14.4°
Sets 15:50:53 0° 176° (S) 2,939 7.7 -14.0°
